period_start,C,m1,H,J0,J1,J2,J3,J4,J5,JA,JB,JC,JD,JJ,JK,JN,#
2017-06-08 00:02:33,0.00,0.19,0.00,22.74,27.15,30.01,13.88,45.35,1006.81,2032.08,3398.75,3053.94,3498.96,599.95,590.82,55.93,0000 0000 0000 0000 000000
2017-06-08 00:07:34,0.01,0.19,0.00,22.75,27.15,29.98,13.79,45.39,1006.84,2032.04,3398.20,3053.68,3498.79,599.75,590.49,55.98,0000 0000 0000 0000 000000
2017-06-08 00:12:36,-0.00,0.19,0.00,22.74,27.15,30.02,13.83,45.43,1006.85,2032.05,3398.18,3053.70,3498.79,600.20,590.96,56.03,0000 0000 0000 0000 000000
2017-06-08 00:17:37,0.01,0.19,0.00,22.75,27.15,29.98,13.82,45.43,1006.85,2032.04,3398.04,3053.37,3498.46,600.16,590.97,56.08,0000 0000 0000 0000 000000
2017-06-08 00:22:38,0.01,0.19,0.00,22.77,27.15,30.00,13.81,45.44,1006.85,2032.03,3398.01,3053.11,3498.15,599.85,590.55,56.13,0000 0000 0000 0000 000000
2017-06-08 00:27:39,0.00,0.19,0.00,22.79,27.15,30.01,13.82,45.72,1006.86,2032.03,3398.00,3053.06,3498.05,600.13,590.72,56.19,0000 0000 0000 0000 000000
2017-06-08 00:32:41,0.00,0.19,0.00,22.81,27.16,30.00,13.79,45.86,1006.92,2032.01,3398.00,3053.02,3498.01,600.19,590.92,56.24,0000 0000 0000 0000 000000
2017-06-08 00:37:42,0.00,0.19,0.00,22.82,27.17,30.00,13.82,45.90,1007.10,2032.01,3397.99,3053.00,3498.00,599.97,590.78,56.29,0000 0000 0000 0000 000000
2017-06-08 00:42:43,0.00,0.19,0.00,22.84,27.17,30.05,13.88,45.88,1007.07,2032.00,3397.97,3053.00,3498.00,600.11,591.00,56.34,0000 0000 0000 0000 000000
2017-06-08 00:47:44,0.00,0.19,0.00,22.86,27.18,30.04,13.76,45.78,1007.01,2032.00,3397.97,3053.00,3497.99,599.97,590.68,56.39,0000 0000 0000 0000 000000
2017-06-08 00:52:45,0.00,0.19,0.00,22.89,27.20,30.02,13.89,45.82,1007.22,2032.00,3397.93,3053.00,3497.98,599.97,590.79,56.44,0000 0000 0000 0000 000000
2017-06-08 00:57:47,-0.00,0.19,0.00,22.90,27.20,30.03,13.82,45.76,1007.33,2032.00,3397.87,3053.00,3497.99,599.69,590.58,56.49,0000 0000 0000 0000 000000
2017-06-08 01:02:48,0.00,0.19,0.00,22.90,27.20,30.02,13.83,45.65,1007.34,2032.00,3397.81,3053.00,3497.99,599.83,590.63,56.54,0000 0000 0000 0000 000000
2017-06-08 01:07:49,0.01,0.19,0.00,22.92,27.22,30.06,13.76,45.49,1007.34,2032.00,3397.30,3052.99,3497.87,599.87,590.57,56.59,0000 0000 0000 0000 000000
2017-06-08 01:12:51,-0.00,0.19,0.00,22.93,27.22,30.07,13.88,45.52,1007.34,2032.00,3397.21,3052.98,3497.83,599.99,590.77,56.64,0000 0000 0000 0000 000000
2017-06-08 01:17:52,0.01,0.19,0.00,22.94,27.24,30.06,13.79,45.50,1007.34,2032.00,3397.10,3052.97,3497.66,599.44,590.25,56.69,0000 0000 0000 0000 000000
2017-06-08 01:22:53,0.01,0.19,0.00,22.98,27.25,30.04,13.88,45.58,1007.34,2032.00,3397.01,3052.86,3497.29,600.20,590.81,56.74,0000 0000 0000 0000 000000
2017-06-08 01:27:54,0.01,0.19,0.00,22.99,27.25,30.06,13.83,45.46,1007.40,2032.00,3397.00,3052.42,3497.03,599.98,590.62,56.79,0000 0000 0000 0000 000000
2017-06-08 01:32:56,0.00,0.19,0.00,23.00,27.27,30.09,13.79,45.43,1007.56,2032.00,3397.00,3052.13,3497.01,599.81,590.44,56.84,0000 0000 0000 0000 000000
2017-06-08 01:37:57,0.00,0.19,0.00,23.02,27.27,30.11,13.88,45.46,1007.66,2032.00,3396.99,3052.06,3497.00,600.14,590.84,56.89,0000 0000 0000 0000 000000
2017-06-08 01:42:58,0.00,0.19,0.00,23.04,27.30,30.12,13.86,45.42,1007.79,2031.99,3396.99,3052.02,3497.00,600.18,591.06,56.94,0000 0000 0000 0000 000000
2017-06-08 01:48:00,0.00,0.19,0.00,23.05,27.30,30.12,13.81,45.63,1007.83,2031.99,3396.96,3052.01,3497.00,600.37,591.25,56.99,0000 0000 0000 0000 000000
2017-06-08 01:53:01,0.00,0.19,0.00,23.06,27.32,30.14,13.84,45.88,1007.83,2031.98,3396.71,3052.00,3496.96,600.17,590.96,57.04,0000 0000 0000 0000 000000
2017-06-08 01:58:02,0.00,0.19,0.00,23.09,27.32,30.13,13.82,45.64,1007.83,2031.94,3396.35,3051.99,3496.81,599.74,590.50,57.09,0000 0000 0000 0000 000000
2017-06-08 02:03:03,0.00,0.19,0.00,23.09,27.35,30.12,13.74,45.46,1007.83,2031.90,3396.21,3051.98,3496.51,599.86,590.48,57.15,0000 0000 0000 0000 000000
2017-06-08 02:08:04,0.01,0.19,0.00,23.10,27.35,30.14,13.87,45.60,1007.83,2031.91,3396.08,3051.99,3496.26,599.95,590.56,57.20,0000 0000 0000 0000 000000
2017-06-08 02:13:05,-0.02,0.19,0.00,23.11,27.37,30.16,13.85,45.48,1007.84,2031.74,3396.04,3051.97,3496.08,600.43,591.03,57.25,0000 0000 0000 0000 000000
2017-06-08 02:18:07,-0.04,0.19,0.00,23.13,27.37,30.19,13.82,45.60,1007.84,2031.15,3396.00,3051.54,3496.00,600.28,590.85,57.30,0000 0000 0000 0000 000000
2017-06-08 02:23:08,0.00,0.19,0.00,23.14,27.40,30.21,13.77,45.58,1007.84,2031.02,3396.00,3051.15,3495.99,599.93,590.54,57.35,0000 0000 0000 0000 000000
2017-06-08 02:28:09,0.00,0.19,0.00,23.15,27.40,30.21,13.79,45.43,1007.87,2031.05,3395.99,3051.07,3495.99,600.01,590.66,57.40,0000 0000 0000 0000 000000
2017-06-08 02:33:10,0.00,0.19,0.00,23.18,27.42,30.22,13.87,45.52,1008.05,2031.06,3395.94,3051.01,3495.97,600.26,591.00,57.45,0000 0000 0000 0000 000000
2017-06-08 02:38:11,-0.00,0.19,0.00,23.19,27.42,30.25,13.80,45.70,1008.22,2031.01,3395.74,3051.00,3495.89,600.27,591.06,57.50,0000 0000 0000 0000 000000
2017-06-08 02:43:12,0.02,0.19,0.00,23.20,27.45,30.25,13.85,45.86,1008.29,2031.00,3395.16,3051.00,3495.25,599.96,590.61,57.55,0000 0000 0000 0000 000000
2017-06-08 02:48:14,0.00,0.19,0.00,23.23,27.45,30.26,13.82,45.75,1008.31,2030.99,3395.01,3050.98,3495.04,599.89,590.54,57.60,0000 0000 0000 0000 000000
2017-06-08 02:53:15,0.00,0.19,0.00,23.25,27.47,30.27,13.86,45.56,1008.31,2030.99,3395.02,3050.98,3495.01,599.60,590.23,57.65,0000 0000 0000 0000 000000
2017-06-08 02:58:16,0.00,0.19,0.00,23.27,27.48,30.28,13.76,45.63,1008.34,2030.99,3395.00,3050.92,3495.00,599.79,590.40,57.70,0000 0000 0000 0000 000000
2017-06-08 03:03:18,0.00,0.19,0.00,23.28,27.50,30.28,13.80,45.56,1008.53,2030.99,3395.00,3050.89,3495.00,599.78,590.57,57.75,0000 0000 0000 0000 000000
2017-06-08 03:08:19,0.01,0.19,0.00,23.31,27.51,30.30,13.87,45.73,1008.66,2030.99,3394.99,3050.30,3494.99,600.30,590.90,57.80,0000 0000 0000 0000 000000
2017-06-08 03:13:20,0.00,0.19,0.00,23.33,27.52,30.31,13.74,45.67,1008.78,2030.99,3394.98,3050.10,3494.97,599.76,590.49,57.85,0000 0000 0000 0000 000000
2017-06-08 03:18:21,0.00,0.19,0.00,23.36,27.54,30.32,13.80,45.47,1008.80,2030.97,3394.95,3050.02,3494.80,599.80,590.57,57.90,0000 0000 0000 0000 000000
2017-06-08 03:23:22,0.01,0.19,0.00,23.38,27.56,30.33,13.81,45.45,1008.81,2030.96,3394.78,3050.00,3494.47,600.08,590.76,57.95,0000 0000 0000 0000 000000
2017-06-08 03:28:24,-0.02,0.19,0.00,23.41,27.57,30.36,13.77,45.45,1008.82,2030.61,3394.19,3050.00,3494.04,600.01,590.68,58.00,0000 0000 0000 0000 000000
2017-06-08 03:33:25,-0.02,0.19,0.00,23.42,27.60,30.37,13.80,45.50,1008.83,2030.34,3394.07,3050.00,3494.01,600.17,590.77,58.05,0000 0000 0000 0000 000000
2017-06-08 03:38:27,-0.02,0.19,0.00,23.46,27.61,30.39,13.75,45.48,1008.84,2030.13,3394.01,3049.97,3494.00,599.81,590.38,58.10,0000 0000 0000 0000 000000
2017-06-08 03:43:28,-0.00,0.19,0.00,23.49,27.62,30.40,13.80,45.42,1009.04,2030.05,3393.99,3049.78,3493.99,599.73,590.51,58.16,0000 0000 0000 0000 000000
2017-06-08 03:48:29,0.01,0.19,0.00,23.50,27.65,30.42,13.82,45.40,1009.22,2030.02,3393.98,3049.32,3493.87,600.01,590.58,58.21,0000 0000 0000 0000 000000
2017-06-08 03:53:31,0.01,0.19,0.00,23.52,27.67,30.44,13.84,45.38,1009.24,2030.00,3393.93,3049.08,3493.33,599.95,590.61,58.26,0000 0000 0000 0000 000000
2017-06-08 03:58:32,0.01,0.19,0.00,23.54,27.69,30.43,13.82,45.48,1009.28,2030.00,3393.43,3049.01,3493.02,600.12,590.80,58.31,0000 0000 0000 0000 000000
2017-06-08 04:03:33,0.00,0.19,0.00,23.57,27.70,30.46,13.82,45.46,1009.29,2029.99,3393.03,3048.99,3493.00,600.36,590.81,58.36,0000 0000 0000 0000 000000
2017-06-08 04:08:35,0.00,0.19,0.00,23.61,27.72,30.50,13.82,45.33,1009.30,2029.99,3393.00,3048.97,3492.97,600.16,590.86,58.41,0000 0000 0000 0000 000000
2017-06-08 04:13:36,0.01,0.19,0.00,23.62,27.75,30.50,13.80,45.59,1009.41,2029.96,3392.99,3048.64,3492.58,600.05,590.62,58.46,0000 0000 0000 0000 000000
2017-06-08 04:18:37,0.01,0.19,0.00,23.65,27.76,30.51,13.78,45.53,1009.64,2029.93,3392.95,3048.16,3492.12,599.87,590.44,58.51,0000 0000 0000 0000 000000
2017-06-08 04:23:38,-0.00,0.19,0.00,23.67,27.79,30.52,13.77,45.50,1009.77,2029.78,3392.80,3048.04,3492.00,599.84,590.45,58.56,0000 0000 0000 0000 000000
2017-06-08 04:28:40,-0.03,0.19,0.00,23.69,27.81,30.55,13.81,45.47,1009.78,2029.49,3392.25,3048.00,3492.00,599.95,590.62,58.61,0000 0000 0000 0000 000000
2017-06-08 04:33:41,-0.01,0.19,0.00,23.71,27.83,30.56,13.83,45.52,1009.78,2029.23,3392.04,3048.00,3491.99,599.77,590.44,58.66,0000 0000 0000 0000 000000
2017-06-08 04:38:43,-0.00,0.19,0.00,23.74,27.85,30.58,13.76,45.38,1009.79,2029.07,3392.00,3047.98,3491.90,599.88,590.43,58.71,0000 0000 0000 0000 000000
2017-06-08 04:43:44,0.01,0.19,0.00,23.77,27.87,30.60,13.84,45.52,1009.79,2029.02,3391.99,3047.88,3491.35,599.97,590.47,58.76,0000 0000 0000 0000 000000
2017-06-08 04:48:45,0.02,0.19,0.00,23.80,27.90,30.66,13.78,45.47,1009.82,2029.00,3391.81,3047.19,3491.01,599.93,590.31,58.81,0000 0000 0000 0000 000000
2017-06-08 04:53:46,0.01,0.19,0.00,23.82,27.91,30.65,13.85,45.34,1009.94,2029.00,3391.29,3047.02,3491.00,600.23,590.82,58.86,0000 0000 0000 0000 000000
2017-06-08 04:58:48,0.00,0.19,0.00,23.84,27.94,30.69,13.79,45.30,1010.00,2028.97,3391.11,3047.00,3490.92,600.21,590.79,58.91,0000 0000 0000 0000 000000
2017-06-08 05:03:49,0.01,0.19,0.00,23.85,27.96,30.70,13.82,45.42,1010.06,2028.95,3391.01,3046.99,3490.52,599.78,590.21,58.96,0000 0000 0000 0000 000000
2017-06-08 05:08:50,0.01,0.19,0.00,23.86,27.98,30.71,13.88,45.54,1010.24,2028.94,3391.00,3046.98,3490.20,600.39,590.97,59.01,0000 0000 0000 0000 000000
2017-06-08 05:13:51,-0.01,0.19,0.00,23.88,28.00,30.74,13.79,45.60,1010.25,2028.84,3391.00,3046.83,3490.01,599.73,590.32,59.06,0000 0000 0000 0000 000000
2017-06-08 05:18:53,-0.04,0.19,0.00,23.90,28.02,30.75,13.87,45.42,1010.27,2028.43,3391.00,3046.47,3490.00,600.44,590.95,59.12,0000 0000 0000 0000 000000
2017-06-08 05:23:54,-0.01,0.19,0.00,23.92,28.05,30.76,13.75,45.41,1010.27,2028.09,3390.99,3046.06,3489.98,599.75,590.24,59.17,0000 0000 0000 0000 000000
2017-06-08 05:28:55,0.01,0.19,0.00,23.93,28.07,30.81,13.80,45.41,1010.27,2028.01,3390.62,3046.00,3489.68,600.33,590.81,59.22,0000 0000 0000 0000 000000
2017-06-08 05:33:56,0.01,0.19,0.00,23.96,28.09,30.84,13.81,45.36,1010.31,2028.00,3390.16,3046.00,3489.21,599.87,590.29,59.27,0000 0000 0000 0000 000000
2017-06-08 05:38:57,0.00,0.19,0.00,23.97,28.11,30.84,13.84,45.34,1010.53,2028.00,3390.03,3045.99,3489.07,600.19,590.73,59.32,0000 0000 0000 0000 000000
2017-06-08 05:43:58,0.00,0.19,0.00,23.99,28.12,30.86,13.81,45.25,1010.69,2028.00,3390.00,3045.95,3489.01,600.21,590.58,59.37,0000 0000 0000 0000 000000
2017-06-08 05:48:59,0.01,0.19,0.00,24.01,28.15,30.90,13.84,45.35,1010.72,2027.99,3389.99,3045.41,3488.99,600.14,590.58,59.42,0000 0000 0000 0000 000000
2017-06-08 05:54:00,0.00,0.19,0.00,24.03,28.17,30.92,13.83,45.42,1010.76,2027.98,3389.93,3045.04,3488.89,600.06,590.66,59.47,0000 0000 0000 0000 000000
2017-06-08 05:59:02,0.01,0.19,0.00,24.05,28.18,30.95,13.75,45.23,1010.76,2027.96,3389.61,3045.01,3488.43,599.66,590.18,59.52,0000 0000 0000 0000 000000
2017-06-08 06:04:03,0.01,0.19,0.00,24.06,28.20,30.95,13.80,45.23,1010.76,2027.97,3389.25,3045.00,3488.13,599.84,590.38,59.57,0000 0000 0000 0000 000000
2017-06-08 06:09:04,-0.01,0.19,0.00,24.08,28.22,30.97,13.81,45.33,1010.76,2027.79,3389.02,3044.99,3488.00,600.36,590.80,59.62,0000 0000 0000 0000 000000
2017-06-08 06:14:06,-0.05,0.19,0.00,24.09,28.25,31.01,13.82,45.37,1010.81,2027.26,3389.00,3044.93,3488.00,599.91,590.32,59.67,0000 0000 0000 0000 000000
2017-06-08 06:19:07,0.01,0.19,0.00,24.11,28.26,31.00,13.74,45.31,1011.08,2027.10,3388.98,3044.41,3487.97,599.77,590.47,59.72,0000 0000 0000 0000 000000
2017-06-08 06:24:08,0.00,0.19,0.00,24.13,28.28,31.03,13.81,45.15,1011.17,2027.04,3388.98,3044.14,3487.93,599.73,590.32,59.77,0000 0000 0000 0000 000000
2017-06-08 06:29:09,0.01,0.19,0.00,24.15,28.31,31.06,13.84,45.19,1011.22,2027.01,3388.81,3044.03,3487.52,600.07,590.61,59.82,0000 0000 0000 0000 000000
2017-06-08 06:34:10,0.01,0.19,0.00,24.19,28.32,31.11,13.79,45.19,1011.22,2027.00,3388.23,3044.00,3487.05,599.93,590.32,59.87,0000 0000 0000 0000 000000
2017-06-08 06:39:12,0.00,0.19,0.00,24.22,28.35,31.11,13.91,45.37,1011.20,2027.00,3388.04,3044.00,3487.00,600.53,590.98,59.92,0000 0000 0000 0000 000000
2017-06-08 06:44:13,0.00,0.19,0.00,24.26,28.37,31.12,13.77,45.22,1011.20,2027.00,3388.00,3043.96,3486.98,599.70,590.08,59.97,0000 0000 0000 0000 000000
2017-06-08 06:49:15,0.00,0.19,0.00,24.28,28.39,31.13,13.79,45.24,1011.24,2026.99,3388.00,3043.86,3486.92,600.13,590.45,60.03,0000 0000 0000 0000 000000
2017-06-08 06:54:16,0.02,0.19,0.00,24.30,28.41,31.18,13.86,45.47,1011.24,2026.98,3387.99,3043.40,3486.55,600.40,590.63,60.08,0000 0000 0000 0000 000000
2017-06-08 06:59:18,0.01,0.17,0.00,24.32,28.44,31.17,12.29,40.43,1011.25,2026.99,3405.95,3051.94,3498.16,536.02,526.15,0.00,0000 0000 0000 0000 000002
2017-06-08 07:04:19,0.00,0.00,0.00,24.35,28.46,31.16,13.76,46.31,1011.25,2027.00,3490.45,3094.32,3558.96,599.64,589.81,0.02,0000 0000 0000 0000 000000
2017-06-08 07:09:21,0.00,0.00,0.00,24.36,28.48,31.18,13.79,46.14,1011.26,2026.97,3488.14,3093.60,3558.03,600.21,590.38,0.07,0000 0000 0000 0000 000000
2017-06-08 07:14:22,0.00,0.00,0.00,24.37,28.50,31.23,13.74,45.99,1011.25,2026.91,3487.29,3093.03,3557.17,600.16,590.32,0.12,0000 0000 0000 0000 000000
2017-06-08 07:19:23,0.00,0.00,0.00,24.39,28.52,31.26,13.84,46.08,1011.27,2026.80,3486.93,3092.99,3556.79,599.93,590.20,0.17,0000 0000 0000 0000 000000
2017-06-08 07:24:24,-0.00,0.00,0.00,24.41,28.54,31.29,13.82,45.98,1011.32,2026.36,3486.13,3092.93,3556.06,600.07,590.13,0.22,0000 0000 0000 0000 000000
2017-06-08 07:29:25,-0.00,0.00,0.00,24.42,28.56,31.30,13.87,46.04,1011.60,2026.10,3485.96,3092.36,3555.96,600.21,590.49,0.27,0000 0000 0000 0000 000000
2017-06-08 07:34:27,0.01,0.00,0.00,24.43,28.58,31.34,13.84,46.08,1011.68,2026.03,3485.57,3092.03,3555.30,599.92,590.22,0.32,0000 0000 0000 0000 000000
2017-06-08 07:39:28,0.01,0.00,0.00,24.45,28.60,31.35,13.83,46.13,1011.73,2026.00,3485.03,3092.00,3555.01,600.01,590.17,0.37,0000 0000 0000 0000 000000
2017-06-08 07:44:29,0.00,0.00,0.00,24.48,28.62,31.37,13.84,46.10,1011.73,2026.00,3485.00,3091.99,3554.87,600.15,590.22,0.42,0000 0000 0000 0000 000000
2017-06-08 07:49:30,0.01,0.00,0.00,24.51,28.65,31.38,13.82,46.13,1011.73,2026.00,3484.92,3091.94,3554.21,600.04,590.20,0.47,0000 0000 0000 0000 000000
2017-06-08 07:54:31,0.03,0.00,0.00,24.53,28.66,31.41,13.78,46.13,1011.75,2026.00,3484.27,3091.48,3554.00,600.04,590.18,0.52,0000 0000 0000 0000 000000
2017-06-08 07:59:32,0.01,0.00,0.00,24.55,28.69,31.42,13.83,46.02,1011.93,2026.00,3484.02,3091.07,3553.98,600.02,590.22,0.57,0000 0000 0000 0000 000000
2017-06-08 08:04:33,0.01,0.00,0.00,24.56,28.71,31.44,13.82,46.03,1012.12,2025.98,3484.00,3091.01,3553.54,599.91,590.22,0.62,0000 0000 0000 0000 000000
2017-06-08 08:09:35,0.00,0.00,0.00,24.59,28.73,31.47,13.83,46.02,1012.21,2025.95,3483.95,3091.00,3553.03,600.01,590.24,0.67,0000 0000 0000 0000 000000
2017-06-08 08:14:36,-0.01,0.00,0.00,24.60,28.75,31.50,13.84,45.91,1012.22,2025.81,3483.22,3090.93,3552.99,600.25,590.50,0.72,0000 0000 0000 0000 000000
2017-06-08 08:19:37,-0.02,0.00,0.00,24.61,28.77,31.51,13.86,46.06,1012.23,2025.22,3483.02,3090.41,3552.52,600.31,590.57,0.77,0000 0000 0000 0000 000000
2017-06-08 08:24:39,0.00,0.00,0.00,24.63,28.80,31.52,13.81,45.95,1012.24,2025.13,3483.00,3090.05,3552.02,599.92,589.96,0.82,0000 0000 0000 0000 000000
2017-06-08 08:29:40,-0.01,0.00,0.00,24.65,28.82,31.54,13.77,45.87,1012.26,2025.04,3482.94,3090.02,3552.00,600.10,590.31,0.87,0000 0000 0000 0000 000000
2017-06-08 08:34:41,0.01,0.00,0.00,24.65,28.84,31.56,13.80,45.95,1012.51,2025.00,3482.24,3089.99,3551.98,599.95,590.27,0.92,0000 0000 0000 0000 000000
2017-06-08 08:39:42,0.00,0.00,0.00,24.67,28.86,31.60,13.90,45.92,1012.65,2025.01,3482.03,3089.97,3551.90,600.79,591.11,0.97,0000 0000 0000 0000 000000
2017-06-08 08:44:44,0.02,0.00,0.00,24.68,28.88,31.61,13.83,46.09,1012.71,2025.00,3482.00,3089.74,3551.17,600.04,590.29,1.02,0000 0000 0000 0000 000000
2017-06-08 08:49:45,0.01,0.00,0.00,24.70,28.90,31.63,13.79,46.04,1012.71,2025.00,3481.97,3089.16,3551.00,600.16,590.54,1.07,0000 0000 0000 0000 000000
2017-06-08 08:54:46,0.01,0.00,0.00,24.71,28.92,31.66,13.76,45.92,1012.71,2025.00,3481.59,3089.03,3550.87,599.82,590.12,1.12,0000 0000 0000 0000 000000
2017-06-08 08:59:48,0.01,0.01,0.00,24.72,28.94,31.70,13.82,46.04,1012.71,2024.99,3481.14,3089.00,3550.33,599.77,590.09,1.17,0000 0000 0000 0000 000000
2017-06-08 09:04:49,0.00,0.01,0.00,24.72,28.96,31.70,13.84,46.02,1012.72,2024.95,3481.01,3088.98,3550.03,600.03,590.42,1.22,0000 0000 0000 0000 000000
2017-06-08 09:09:50,-0.00,0.00,0.00,24.75,28.98,31.71,13.84,45.89,1012.74,2024.66,3480.92,3088.41,3549.93,600.20,590.50,1.27,0000 0000 0000 0000 000000
2017-06-08 09:14:52,0.00,0.01,0.00,24.76,29.00,31.73,13.80,45.83,1013.02,2024.45,3480.19,3088.03,3549.19,599.94,590.35,1.32,0000 0000 0000 0000 000000
2017-06-08 09:19:53,-0.01,0.00,0.00,24.76,29.01,31.76,13.80,46.03,1013.19,2024.18,3480.01,3088.00,3549.00,599.80,590.25,1.37,0000 0000 0000 0000 000000
2017-06-08 09:24:54,-0.01,0.00,0.00,24.77,29.03,31.77,13.78,45.93,1013.20,2024.04,3480.00,3087.97,3548.97,599.76,590.22,1.42,0000 0000 0000 0000 000000
2017-06-08 09:29:56,0.01,0.00,0.00,24.78,29.05,31.80,13.80,45.85,1013.20,2024.00,3479.94,3087.77,3548.60,599.60,590.09,1.47,0000 0000 0000 0000 000000
2017-06-08 09:34:57,0.02,0.01,0.00,24.79,29.07,31.83,13.77,45.85,1013.21,2024.00,3479.52,3087.26,3548.06,599.78,590.25,1.52,0000 0000 0000 0000 000000
2017-06-08 09:39:58,0.00,0.01,0.00,24.81,29.09,31.83,13.86,45.94,1013.22,2024.00,3479.18,3087.07,3548.01,599.94,590.36,1.57,0000 0000 0000 0000 000000
2017-06-08 09:44:59,0.00,0.01,0.00,24.81,29.10,31.85,13.83,45.82,1013.26,2024.00,3478.99,3087.00,3547.99,599.83,590.22,1.62,0000 0000 0000 0000 000000
2017-06-08 09:50:01,0.02,0.01,0.00,24.82,29.12,31.87,13.78,45.73,1013.47,2024.00,3478.59,3086.96,3547.65,600.08,590.63,1.67,0000 0000 0000 0000 000000
2017-06-08 09:55:02,0.01,0.01,0.00,24.86,29.13,31.91,13.86,45.88,1013.65,2024.00,3478.04,3086.78,3547.05,599.91,590.47,1.73,0000 0000 0000 0000 000000
2017-06-08 10:00:03,0.00,0.01,0.00,24.87,29.15,31.92,13.77,45.83,1013.69,2024.00,3478.00,3086.41,3547.00,599.83,590.47,1.78,0000 0000 0000 0000 000000
2017-06-08 10:05:04,0.00,0.01,0.00,24.87,29.15,31.97,13.78,45.74,1013.69,2023.99,3478.00,3086.11,3546.99,599.83,590.38,1.83,0000 0000 0000 0000 000000
2017-06-08 10:10:05,0.00,0.01,0.00,24.87,29.15,31.97,13.87,45.79,1013.69,2023.99,3477.95,3086.01,3546.97,600.19,590.74,1.88,0000 0000 0000 0000 000000
2017-06-08 10:15:07,0.00,0.01,0.00,24.86,29.15,32.00,13.82,45.80,1013.69,2023.98,3477.84,3086.00,3546.92,599.70,590.40,1.93,0000 0000 0000 0000 000000
2017-06-08 10:20:08,0.00,0.01,0.00,24.85,29.16,32.00,13.88,45.73,1013.69,2023.98,3477.84,3086.00,3546.83,599.94,590.52,1.98,0000 0000 0000 0000 000000
2017-06-08 10:25:10,0.00,0.01,0.00,24.84,29.16,31.99,13.85,45.71,1013.69,2023.97,3477.62,3086.00,3546.57,600.23,590.95,2.03,0000 0000 0000 0000 000000
2017-06-08 10:30:11,0.01,0.01,0.00,24.85,29.15,32.02,13.76,45.70,1013.69,2023.96,3477.57,3086.00,3546.34,599.51,590.12,2.08,0000 0000 0000 0000 000000
2017-06-08 10:35:13,0.00,0.01,0.00,24.85,29.15,32.00,13.88,45.56,1013.69,2023.97,3477.19,3086.00,3546.11,600.39,591.05,2.13,0000 0000 0000 0000 000000
2017-06-08 10:40:14,0.00,0.01,0.00,24.85,29.15,31.99,13.82,45.64,1013.70,2023.97,3477.11,3086.00,3546.09,599.75,590.32,2.18,0000 0000 0000 0000 000000
2017-06-08 10:45:15,-0.00,0.01,0.00,24.85,29.15,31.99,13.82,45.58,1013.71,2023.98,3477.26,3086.00,3546.15,599.95,590.55,2.23,0000 0000 0000 0000 000000
2017-06-08 10:50:17,0.00,0.01,0.00,24.85,29.15,32.01,13.78,45.63,1013.79,2023.99,3477.06,3086.00,3546.05,600.00,590.73,2.28,0000 0000 0000 0000 000000
2017-06-08 10:55:18,0.02,0.01,0.00,24.84,29.15,32.02,13.79,45.67,1014.00,2023.98,3476.74,3085.71,3545.97,599.83,590.67,2.33,0000 0000 0000 0000 000000
2017-06-08 11:00:19,0.03,0.01,0.00,24.82,29.14,32.04,13.87,45.81,1014.13,2023.98,3475.89,3085.03,3545.21,600.18,591.08,2.38,0000 0000 0000 0000 000000
2017-06-08 11:05:21,0.03,0.01,0.00,24.82,29.12,31.97,13.81,45.69,1014.15,2023.98,3474.88,3084.71,3544.84,600.15,591.11,2.43,0000 0000 0000 0000 000000
2017-06-08 11:10:22,0.04,0.02,0.00,24.80,29.12,32.01,13.82,45.76,1014.14,2023.99,3473.61,3083.98,3544.02,599.95,590.90,2.48,0000 0000 0000 0000 000000
2017-06-08 11:15:23,0.05,0.02,0.00,24.80,29.12,32.03,13.86,45.75,1014.16,2023.99,3472.37,3083.14,3543.12,600.13,591.01,2.53,0000 0000 0000 0000 000000
2017-06-08 11:20:24,0.02,0.02,0.00,24.78,29.12,31.99,13.79,45.85,1014.17,2023.99,3471.21,3082.97,3542.73,599.81,590.95,2.58,0000 0000 0000 0000 000000
2017-06-08 11:25:25,0.01,0.02,0.00,24.77,29.10,32.00,13.84,45.65,1014.17,2023.99,3471.01,3082.86,3542.24,599.94,591.10,2.63,0000 0000 0000 0000 000000
2017-06-08 11:30:27,0.01,0.02,0.00,24.76,29.10,32.01,13.85,45.58,1014.17,2023.99,3470.99,3082.53,3542.05,600.00,591.13,2.68,0000 0000 0000 0000 000000
2017-06-08 11:35:28,0.00,0.02,0.00,24.75,29.10,32.00,13.77,45.65,1014.17,2023.99,3470.97,3082.42,3542.03,600.25,591.25,2.73,0000 0000 0000 0000 000000
2017-06-08 11:40:30,0.00,0.02,0.00,24.75,29.09,31.98,13.87,45.54,1014.18,2023.99,3470.93,3082.25,3542.01,600.18,591.20,2.78,0000 0000 0000 0000 000000
2017-06-08 11:45:31,0.00,0.02,0.00,24.75,29.07,32.00,13.83,45.57,1014.19,2023.99,3470.72,3082.16,3542.00,599.97,591.09,2.83,0000 0000 0000 0000 000000
2017-06-08 11:50:32,0.01,0.02,0.00,24.75,29.07,31.97,13.86,45.69,1014.20,2023.99,3470.25,3082.06,3542.00,600.28,591.46,2.88,0000 0000 0000 0000 000000
2017-06-08 11:55:33,0.00,0.02,0.00,24.73,29.07,31.97,13.81,45.67,1014.19,2023.99,3470.06,3082.01,3542.00,599.94,591.20,2.93,0000 0000 0000 0000 000000
2017-06-08 12:00:34,0.00,0.02,0.00,24.72,29.05,31.96,13.83,45.47,1014.19,2023.99,3470.08,3082.03,3542.00,599.59,590.80,2.98,0000 0000 0000 0000 000000
2017-06-08 12:05:35,-0.00,0.02,0.00,24.72,29.05,31.96,13.87,45.81,1014.20,2023.99,3470.06,3082.11,3542.00,599.97,591.29,3.03,0000 0000 0000 0000 000000
2017-06-08 12:10:36,0.00,0.02,0.00,24.72,29.05,31.97,13.74,45.55,1014.32,2024.02,3470.04,3082.19,3542.00,599.86,591.12,3.08,0000 0000 0000 0000 000000
2017-06-08 12:15:37,0.00,0.02,0.00,24.70,29.03,31.95,13.85,45.47,1014.26,2024.01,3470.01,3082.12,3542.00,599.71,590.96,3.13,0000 0000 0000 0000 000000
2017-06-08 12:20:38,0.00,0.02,0.00,24.70,29.02,31.96,13.80,45.67,1014.24,2024.04,3470.01,3082.09,3541.98,599.85,591.03,3.18,0000 0000 0000 0000 000000
2017-06-08 12:25:39,0.00,0.02,0.00,24.70,29.02,31.93,13.89,45.71,1014.27,2024.02,3470.00,3082.00,3541.94,600.20,591.45,3.23,0000 0000 0000 0000 000000
2017-06-08 12:30:41,0.00,0.02,0.00,24.69,29.02,31.88,13.80,45.59,1014.21,2024.04,3469.99,3082.00,3541.95,600.50,591.76,3.28,0000 0000 0000 0000 000000
2017-06-08 12:35:42,-0.00,0.02,0.00,24.68,29.00,31.89,13.84,45.48,1014.21,2024.04,3469.99,3082.00,3541.93,600.02,591.25,3.33,0000 0000 0000 0000 000000
2017-06-08 12:40:43,0.00,0.03,0.00,24.67,29.00,31.93,13.82,45.63,1014.25,2024.09,3469.99,3082.00,3541.95,600.11,591.34,3.38,0000 0000 0000 0000 000000
2017-06-08 12:45:44,0.00,0.03,0.00,24.67,29.00,31.90,13.85,45.77,1014.48,2024.11,3469.97,3082.00,3541.89,600.46,592.00,3.43,0000 0000 0000 0000 000000
2017-06-08 12:50:46,0.01,0.03,0.00,24.67,29.00,31.88,13.87,45.60,1014.61,2024.20,3469.96,3082.00,3541.82,600.06,591.51,3.48,0000 0000 0000 0000 000000
2017-06-08 12:55:47,-0.01,0.03,0.00,24.68,28.99,31.87,13.80,45.50,1014.65,2024.26,3469.97,3082.00,3541.81,599.83,591.29,3.53,0000 0000 0000 0000 000000